Flag for Canada Weather past 2 weeks in Saint John, New Brunswick, Canada

Now
48 °F

More clouds than sun.


Feels Like: 45 °F
Forecast: 48 / 60 °F
Wind: 8 mph from South

Location: Saint John

Current Time: May 25, 2015 at 9:28:02 PM

Latest Report: May 25, 2015 at 9:00 PM


Visibility: 10 mi

Pressure: 30.14 "Hg

Humidity: 94%

Dew point: 46 °F

Location of Saint JohnLocation

Historic Weather in Saint John — Graph

°F

Saint John temperature yesterday

Maximum temperature yesterday: 63 °F (at 5:00 PM)
Minimum temperature yesterday: 36 °F (at 3:00 AM)
Average temperature yesterday: 50 °F

Past Weeks' High & Low Weather Summary

 TemperatureHumidityPressure
High68 °F (May 15, 12:00 PM)100% (May 10, 8:00 PM)30.33 "Hg (May 10, 8:00 PM)
Low28 °F (May 14, 3:00 AM)24% (May 16, 2:00 PM)29.49 "Hg (May 20, 5:00 PM)
Average49 °F74%30.01 "Hg
* Reported May 10 8:00 PM — May 25 8:00 PM, Saint John, Weather by CustomWeather, © 2015

Note: Actual official high and low records may vary slightly from our data, if they occured in-between our weather recording intervals... More about our weather records

Advertising

Saint John weather history for previous 24 hours

 ConditionsComfort  
Time TempWeatherWind HumidityBarometerVisibility
8:00 PM
Mon, May 25
50 °FOvercast.10 mph88%30.14 "Hg15 mi
7:00 PM52 °FOvercast.13 mph82%30.13 "Hg15 mi
6:00 PM54 °FPartly sunny.12 mph77%30.12 "Hg15 mi
5:00 PM59 °FPartly sunny.17 mph63%30.12 "Hg15 mi
4:00 PM59 °FOvercast.15 mph59%30.11 "Hg15 mi
3:00 PM64 °FOvercast.15 mph52%30.11 "Hg15 mi
2:00 PM61 °FPartly sunny.16 mph55%30.13 "Hg15 mi
1:00 PM61 °FPartly sunny.16 mph55%30.14 "Hg15 mi
12:00 PM61 °FPartly sunny.16 mph55%30.14 "Hg15 mi
11:00 AM64 °FPartly sunny.12 mph52%30.13 "Hg15 mi
10:00 AM63 °FPartly sunny.8 mph56%30.14 "Hg15 mi
9:00 AM63 °FBroken clouds.7 mph59%30.13 "Hg15 mi
8:00 AM55 °FScattered clouds.6 mph72%30.13 "Hg15 mi
7:00 AM46 °FBroken clouds.No wind87%30.11 "Hg15 mi
6:00 AM43 °FPartly cloudy.3 mph93%30.11 "Hg15 mi
5:00 AM43 °FPassing clouds.9 mph93%30.09 "Hg15 mi
4:00 AM39 °FClear.2 mph100%30.09 "Hg15 mi
3:00 AM39 °FPassing clouds.No wind93%30.08 "Hg15 mi
2:00 AM45 °FPassing clouds.No wind87%30.08 "Hg15 mi
1:00 AM45 °FPassing clouds.3 mph87%30.08 "Hg15 mi
12:00 AM45 °FPassing clouds.No wind87%30.07 "Hg15 mi
11:00 PM
Sun, May 24
46 °FPassing clouds.5 mph82%30.06 "Hg15 mi
10:00 PM50 °FPassing clouds.7 mph76%30.05 "Hg15 mi
9:00 PM54 °FBroken clouds.9 mph63%30.03 "Hg15 mi
Weather by CustomWeather, © 2015

See weather overviewHow to use our weather pages